Weather History for Orangeburg, SC

Change the Weather History Date:

Wednesday, January 22, 2014

  Actual Average Record
Temperature  
Mean Temperature 35 °F 46 °F  
Max Temperature 42 °F 57 °F 79 °F (1959)
Min Temperature 27 °F 36 °F 14 °F (1985)
Degree Days  
Heating Degree Days 30 19  
Month to date heating degree days 452 430  
Since 1 July heating degree days 1242 1334  
Cooling Degree Days 0 0  
Month to date cooling degree days 0 0  
Year to date cooling degree days 0 0  
Moisture  
Dew Point 15 °F    
Average Humidity 48    
Maximum Humidity 69    
Minimum Humidity 28    
Precipitation  
Precipitation 0.00 in 0.14 in 0.88 in (1966)
Month to date precipitation 1.75 2.66  
Year to date precipitation 1.75 2.66  
Sea Level Pressure  
Sea Level Pressure 30.03 in    
Wind  
Wind Speed 7 mph (West)    
Max Wind Speed 17 mph    
Max Gust Speed 22 mph    
Visibility 10 miles    
Events      
T = Trace of Precipitation, MM = Missing Value Source: NWS Daily Summary

Daily Weather History Graph

Daily Weather History Graph

Search for Another Location

Airport:

Trip Planner

Search our weather history database for the weather conditions in past years. The results will help you decide how hot, cold, wet, or windy it might be!

Date:

Astronomy

Jan. 22, 2014 Rise Set
Actual Time 7:25 AM EST 5:45 PM EST
Civil Twilight 6:58 AM EST 6:11 PM EST
Nautical Twilight 6:28 AM EST 6:42 PM EST
Astronomical Twilight 5:58 AM EST 7:11 PM EST
Moon 11:54 PM EST (1/22) 10:45 AM EST (1/22)
Length of Visible Light 11h 13m
Length of Day
10h 20m
Waning Gibbous, 65% of the Moon is Illuminated
Jan 22
Waning Gibbous
Jan 24
Last Quarter
Jan 30
New
Feb 6
First Quarter
Feb 14
Full

Hourly Weather History & Observations

Time (EST) Temp. Windchill Dew Point Humidity Pressure Visibility Wind Dir Wind Speed Gust Speed Precip Events Conditions
12:53 AM 37.0 °F 29.3 °F 23.0 °F 57% 29.86 in 10.0 mi NW 11.5 mph - N/A   Clear
1:53 AM 36.0 °F 29.0 °F 21.0 °F 55% 29.89 in 10.0 mi NW 9.2 mph - N/A   Clear
2:53 AM 34.0 °F 26.6 °F 21.0 °F 59% 29.91 in 10.0 mi NW 9.2 mph - N/A   Clear
3:53 AM 32.0 °F 24.8 °F 21.0 °F 64% 29.94 in 10.0 mi NW 8.1 mph - N/A   Clear
4:53 AM 30.9 °F 23.5 °F 19.9 °F 64% 29.95 in 10.0 mi NW 8.1 mph - N/A   Clear
5:53 AM 28.9 °F 21.9 °F 19.0 °F 67% 29.97 in 10.0 mi WNW 6.9 mph - N/A   Clear
6:53 AM 28.0 °F 20.8 °F 18.0 °F 66% 30.00 in 10.0 mi NW 6.9 mph - N/A   Clear
7:53 AM 28.0 °F 20.8 °F 18.0 °F 66% 30.03 in 10.0 mi WNW 6.9 mph - N/A   Clear
8:53 AM 30.0 °F 21.7 °F 16.0 °F 56% 30.05 in 10.0 mi WNW 9.2 mph - N/A   Clear
9:53 AM 32.0 °F 23.6 °F 15.1 °F 50% 30.07 in 10.0 mi WNW 10.4 mph - N/A   Clear
10:53 AM 34.0 °F 29.8 °F 14.0 °F 44% 30.08 in 10.0 mi Variable 4.6 mph - N/A   Clear
11:53 AM 37.0 °F 29.8 °F 12.9 °F 37% 30.07 in 10.0 mi WNW 10.4 mph - N/A   Clear
12:53 PM 37.9 °F 31.5 °F 12.0 °F 35% 30.04 in 10.0 mi West 9.2 mph - N/A   Clear
1:53 PM 39.9 °F 32.5 °F 12.0 °F 32% 30.01 in 10.0 mi West 12.7 mph 17.3 mph N/A   Clear
2:53 PM 41.0 °F 33.9 °F 10.9 °F 29% 30.01 in 10.0 mi West 12.7 mph 19.6 mph N/A   Clear
3:53 PM 41.0 °F 34.7 °F 12.0 °F 31% 30.01 in 10.0 mi West 10.4 mph - N/A   Clear
4:53 PM 39.9 °F 34.5 °F 12.0 °F 32% 30.04 in 10.0 mi West 8.1 mph - N/A   Clear
5:53 PM 37.0 °F 32.4 °F 10.0 °F 33% 30.06 in 10.0 mi West 5.8 mph - N/A   Clear
6:53 PM 33.1 °F 28.7 °F 12.9 °F 43% 30.07 in 10.0 mi WSW 4.6 mph - N/A   Clear
7:53 PM 30.0 °F 26.5 °F 12.0 °F 47% 30.10 in 10.0 mi SW 3.5 mph - N/A   Clear
8:53 PM 30.0 °F - 12.9 °F 49% 30.11 in 10.0 mi Calm Calm - N/A   Clear
9:53 PM 28.9 °F 25.2 °F 12.9 °F 51% 30.13 in 10.0 mi SW 3.5 mph - N/A   Clear
10:53 PM 30.0 °F 25.2 °F 10.9 °F 45% 30.14 in 10.0 mi SW 4.6 mph - N/A   Clear
11:53 PM 27.0 °F - 10.9 °F 51% 30.14 in 10.0 mi Calm Calm - N/A   Clear